Change the Weather History Date:

Monday, October 28, 2013

  Actual Average Record
Temperature  
Mean Temperature 46 °F -  
Max Temperature 63 °F - - ()
Min Temperature 30 °F - - ()
Degree Days  
Heating Degree Days 18    
Moisture  
Dew Point 30 °F    
Average Humidity 59    
Maximum Humidity 94    
Minimum Humidity 20    
Precipitation  
Precipitation 0.00 in - - ()
Sea Level Pressure  
Sea Level Pressure 30.03 in    
Wind  
Wind Speed 4 mph ()    
Max Wind Speed 9 mph    
Max Gust Speed -    
T = Trace of Precipitation, MM = Missing Value Source: Averaged Metar Reports

Daily Weather History Graph

Daily Weather History Graph

Search for Another Location

Airport or City:

Trip Planner

Search our weather history database for the weather conditions in past years. The results will help you decide how hot, cold, wet, or windy it might be!

Date:

Astronomy

Oct. 28, 2013 Rise Set
Actual Time 8:01 AM PDT 6:04 PM PDT
Civil Twilight 7:28 AM PDT 6:37 PM PDT
Nautical Twilight 6:51 AM PDT 7:14 PM PDT
Astronomical Twilight 6:14 AM PDT 7:51 PM PDT
Moon 1:29 AM PDT (10/28) 3:17 PM PDT (10/28)
Length of Visible Light 11h 08m
Length of Day
10h 02m
Waning Crescent, 33% of the Moon is Illuminated
Oct 28
Waning Crescent
Nov 3
New
Nov 9
First Quarter
Nov 17
Full
Nov 25
Last Quarter

Hourly Weather History & Observations

Time (PDT) Temp. Dew Point Humidity Pressure Visibility Wind Dir Wind Speed Gust Speed Precip Events Conditions
12:00 AM 56.8 °F 23.0 °F 27% 30.06 in - North 8.1 mph - N/A   Unknown
1:00 AM 54.0 °F 24.4 °F 32% 30.07 in - NNE 4.6 mph - N/A   Unknown
2:00 AM 54.3 °F 23.2 °F 30% 30.08 in - North 9.2 mph - N/A   Unknown
3:00 AM 53.4 °F 22.3 °F 30% 30.08 in - North 4.6 mph - N/A   Unknown
4:00 AM 40.3 °F 30.2 °F 67% 30.08 in - West 2.3 mph - N/A   Unknown
5:00 AM 40 °F 30 °F 56% 30.08 in - South 2.3 mph - -  
5:00 AM 39.6 °F 29.7 °F 68% 30.08 in - SW 2.3 mph - N/A   Unknown
6:00 AM 35.6 °F 30.9 °F 83% 30.09 in - WNW 1.2 mph - N/A   Unknown
7:00 AM 32.9 °F 30.0 °F 89% 30.09 in - North 1.2 mph - N/A   Unknown
8:00 AM 32.0 °F 30.0 °F 92% 30.10 in - WNW 2.3 mph - N/A   Unknown
9:00 AM 35.4 °F 32.5 °F 89% 30.10 in - NW 1.2 mph - N/A   Unknown
10:00 AM 45.7 °F 36.5 °F 70% 30.09 in - ESE 2.3 mph - N/A   Unknown
11:00 AM 51 °F 36 °F 45% 30.06 in - ESE 4.6 mph - -  
11:00 AM 50.7 °F 36.3 °F 58% 30.06 in - East 3.5 mph - N/A   Unknown
12:00 PM 55.9 °F 34.3 °F 44% 30.04 in - South 2.3 mph - N/A   Unknown
1:00 PM 59.0 °F 27.0 °F 29% 30.01 in - ESE 2.3 mph - N/A   Unknown
2:00 PM 61.5 °F 22.6 °F 23% 29.99 in - South 5.8 mph - N/A   Unknown
3:00 PM 62.2 °F 20.1 °F 20% 29.97 in - South 6.9 mph - N/A   Unknown
4:00 PM 62.6 °F 23.2 °F 22% 29.96 in - South 6.9 mph - N/A   Unknown
5:00 PM 58 °F 30 °F 23% 29.96 in - SSW 2.3 mph - -  
5:00 PM 57.7 °F 30.4 °F 35% 29.96 in - SSW 2.3 mph - N/A   Unknown
6:00 PM 44.8 °F 37.2 °F 75% 29.96 in - WNW 2.3 mph - N/A   Unknown
7:00 PM 39.7 °F 35.1 °F 83% 29.98 in - NNW 2.3 mph - N/A   Unknown
8:00 PM 36.7 °F 34.3 °F 91% 29.99 in - WNW 1.2 mph - N/A   Unknown
9:00 PM 34.2 °F 32.2 °F 92% 30.00 in - Calm Calm - N/A   Unknown
10:00 PM 32.9 °F 31.3 °F 94% 30.00 in - Calm Calm - N/A   Unknown
11:00 PM 34 °F 32 °F 89% 30.01 in - NW 3.5 mph - -  
11:00 PM 33.8 °F 32.2 °F 94% 30.01 in - NNW 2.3 mph - N/A   Unknown